Погода в Твери

Хотите узнать прогноз погоды в Твери? Тогда Вам сюда: Погода в Твери

Поиск расширенной информации на нашем сайте:

Полезная информация:

Новости сайта



02.01.2020
Опубликован Долгосрочный прогноз погоды по городам России и ближнего зарубежья на январь 2020 года.
Карты: Прогноз на январь и февраль 2020 года, Сравнение прогнозируемой аномалии приземной температуры воздуха на январь 2020 года по разным моделям.




Погода в Твери - сегодня

Время (UTC), дата Ветер
(°,м/с) 
Видим.   Явления Облачность Т
(°С)
Тd
(°С)
f(%) Тe
(°С)
Pmin
(гПа)
dP
(гПа)
Po
(мм)
O2
(г/м3)
Тmin Tmax R s Состояние
почвы
06 27.11.21 110 (В) 1000 м  слаб. морось{снег}  10/10 100 м 
[Frnb|Ns]
+0.6 +0.5 99 -1  1005.5  -1.2  741  298  +0.3    равномерный
мокрый или
старый снег
100% 
09 27.11.21 130 (ЮВ) 2000 м  дымка{морось, туман}  10/10 200 м 
[St]
+1.7 +1.6 99 1003.7  -1.7  739  296           
12 27.11.21 110 (В) 2000 м  слаб. снег{морось}  10/10 100 м 
[Frnb|Ns]
+0.7 +0.4 98 -1  1000.8  -3  737  296           
15 27.11.21 120 (ЮВ) 1000 м  снег  10/10 100 м 
[Frnb|Ns]
+0.4 +0.3 99 -1  998.1  -2.6  735  296         
18 27.11.21 140 (ЮВ) 2000 м  слаб. снег  10/10 100 м 
[Frnb|Ns]
+0.4 +0.1 98 -1  996.6  -1.5  734  295    +1.8     
21 27.11.21 150 (ЮВ) 4000 м  дымка{снег}  10/10 100 м 
[St]
+1.5 +1.2 98 995.9  -0.6  734  294           
00 28.11.21 160 (Ю) 4000 м  слаб. дождь{снег}  10/10 100 м 
[Frnb|Ns]
+2.8 +2.5 98 +2  995.3  -0.5  733  292           
03 28.11.21 200 (Ю) 10 км  слаб. дождь  10/10 200 м 
[Frnb|Ns]
+3.9 +3.7 99 +5  995.8  0.5  734  291  +0.3       
06 28.11.21 210 (ЮЗ) 10 км  {дождь}  10/10 300 м 
[St]
+3.2 +2.9 98 +3  998.2  2.4  735  292  +0.3    равномерный
мокрый или
старый снег
100% 
09 28.11.21 210 (ЮЗ) 10 км    10/10 300 м 
[St]
+3.1 +1.9 92 +3  1000.5  2.2  737  293           
12 28.11.21 220 (ЮЗ) 10 км    10/10 300 м 
[St]
+3.1 +1.7 91 +3  1002.5  739  294           
15 28.11.21 200 (Ю) 10 км    9/9 300 м 
[Sc]
+2.4 +1.2 92 +3  1004.8  2.2  740  295      0.3     
18 28.11.21 200 (Ю) 10 км    9/9 600 м 
[Sc]
+1.5 +0.7 94 +2  1006.6  1.7  742  297    +3.2       
21 28.11.21 190 (Ю) 10 км    9/9 1000 м 
[Sc]
+1.4 +0 90 +2  1007.8  1.2  742  298           
00 29.11.21 110 (В) 10 км  слаб. снег  10/10 300 м 
[Frnb|Ns]
+0.5 -0.2 95 +1  1007.5  -0.4  742  298           
03 29.11.21 080 (В) 2000 м  снег [диам. отлож. мокр. снега 1 мм]  10/10 100 м 
[Frnb|Ns]
+0.2 -0.1 98 -1  1006.4  -1.1  741  298  +0.2       
06 29.11.21 090 (В) 2000 м  слаб. снег [диам. отлож. мокр. снега 3 мм]  10/10 100 м 
[Frnb|Ns]
+0.3 +0.4 100 -1  1005.1  -1.3  740  298  +0.2    равномерный
мокрый или
старый снег
100% 
09 29.11.21 090 (В) 1000 м  слаб. дождь{снег} [диам. отлож. мокр. снега 3 мм]  10/10 100 м 
[Frnb|Ns]
+0.7 +0.4 98 -1  1002.4  -2.6  738  297           
12 29.11.21 090 (В) 1000 м  дымка{снег, дождь} [диам. отлож. мокр. снега 3 мм]  10/10 100 м 
[St]
+1.7 +1.4 98 1000  -2.3  737  295           
15 29.11.21 090 (В) 0500 м  туман  ?/?  
+2.1 +2.1 100 +1  996.6  -3.3  734  293         
18 29.11.21 080 (В) 1000 м  слаб. дождь{туман}  10/10 100 м 
[Frnb|Ns]
+2.8 +2.8 100 +1  992.1  -4.4  731  291    +2.9  0.5     
21 29.11.21 090 (В) 10 км  слаб. дождь  10/10 100 м 
[Frnb|Ns]
+2.9 +2.6 98 +1  986.1  -5.8  727  289           
00 30.11.21 060 (СВ) 10 км  слаб. дождь  10/10 200 м 
[Frnb|Ns]
+2.3 +2 98 +1  978.8  -7.3  721  288           
03 30.11.21 050 (СВ) 4000 м  слаб. дождь  10/10 200 м 
[Frnb|Ns]
+1.8 +1.5 98 971.1  -7.6  715  286  +1.8       
06 30.11.21 тихо ()   1000 м  снег{дождь}  10/10 100 м 
[Frnb|Ns]
+0.2 +0.2 100 967.3  -3.8  713  287  +0.2    11  равномерный
мокрый или
старый снег
100% 
Время (UTC), дата Ветер
(°,м/с) 
Видим.   Явления Облачность Т
(°С)
Тd
(°С)
f(%) Тe
(°С)
Pmin
(гПа)
dP
(гПа)
Po
(мм)
O2
(г/м3)
Тmin Tmax R s Состояние
почвы

Для получения пояснительной информации подведите курсор к названию столбца.

ПОГОДА в Твери - архив

Всё, что Вы хотите узнать о погоде в Твери - удобно и подробно!

Выберите нужную дату (начиная с 1 января 2019* года) и нажмите кнопку "Найти".
Будут отображены архивные сводки погоды по пункту Тверь, начиная с указанной даты.


Отображать данные в формате CSV (для использования в таблицах Excel)


Внимание! Наш архив погоды предназначен исключительно для личного некоммерческого использования в познавательных целях. Если Вам необходимы официальные справки о состоянии погоды (для производственных, юридических, коммерческих и т.п. целей), обращайтесь в органы Росгидромета.

*Примечание: данная дата относится к архиву по метеостанциям СССР (Россия, СНГ, Балтия).
Архив по метеостанциям Зарубежной Европы и Азии (кроме Китая) хранится 10 дней, по другим регионам земного шара (Китай, Африка, Америка, Австралия, Океания) - 1 день.

Тверь - район местоположения метеостанции


Название, широта, долгота, высота метеостанции:
Тверь (город) 56.8°ш. 35.7°д. 137 м над ур. моря [Российская Федерация]

Дополнительная информация

В oтличие oт бoльшинства пoгoдных сайтoв мы публикуем пoдрoбную метеoинфoрмацию в детальнoм прoфессиoнальнoм фoрмате.

Характеристики температуры и влажнoсти вoздуха измеряются на высoте 2 м в тени вдали oт зданий и деревьев.
Скoрoсть ветра измеряется на высoте 10 м (на урoвне рoста челoвека скoрoсть ветра ниже в 1.5-2 раза). Если метеoстанция нахoдится в гoрoде или в лесу, тo скoрoсть ветра занижена на 2-4 м/с пo сравнению с oткрытым местoм. Скoрoсть ветра над акватoриями крупных рек и oзёр, а также на вершинах хoлмoв на 2-5 м/с выше, чем в oбычных услoвиях.
Атмoсфернoе давление в разных тoчках местнoсти мoжет значительнo oтличаться oт давления на метеoстанции, в зависимoсти oт услoвий рельефа (при пoдъёме на 10 м давление пoнижается примернo на 1 мм рт.ст.).